Regional Weather Roundup
Issued by NWS Charleston, SC

Current Version | Previous Version | Graphics & Text | Print | Product List | Glossary On
Versions: 1 2 3 4 5 6 7 8 9 10 11 12 13 14 15 16 17 18 19 20 21 22 23 24 25 26 27 28 29 30 31 32 33 34 35 36 37 38 39 40 41 42 43 44 45 46 47 48 49 50
000
ASUS42 KCHS 051212
RWRCHS

REGIONAL WEATHER ROUNDUP
NATIONAL WEATHER SERVICE CHARLESTON SC
800 AM EDT SAT SEP 05 2015

NOTE: "FAIR" INDICATES FEW OR NO CLOUDS BELOW 12,000 FEET WITH NO
SIGNIFICANT WEATHER AND/OR OBSTRUCTIONS TO VISIBILITY.

NOT ALL STATIONS ARE QUALITY CONTROLLED BY THE NATIONAL
WEATHER SERVICE. USE DATA WITH CAUTION...ESPECIALLY
DEWPOINT OBSERVATIONS.

SCZ027-030-031-034>040-042>050-051300-
...SOUTHEAST SOUTH CAROLINA...

CITY           SKY/WX    TMP DP  RH WIND       PRES   REMARKS
N CHARLESTON   MOSUNNY   73  68  84 NE10      30.04S
6HR MIN TEMP:  72; 6HR MAX TEMP:  75;

WATERFRONT PRK   N/A     73  70  90 N9        30.02R
MOUNT PLEASANT FAIR      72  70  94 N8        30.05R FOG
JOHNS ISLAND   FAIR      73  70  88 N6        30.04S
PINOPOLIS        N/A     75  70  83 NE10      29.97R
MONCKS CORNER  FAIR      75  68  78 N6        30.06R
SUMMERVILLE    NOT AVBL
BEAUFORT MCAS  MOSUNNY   74  69  85 NE8       30.06R
6HR MIN TEMP:  73; 6HR MAX TEMP:  76;

BEAUFORT ARPT  FAIR      73  72  94 NE9       30.05R
HILTON HEAD IS MOSUNNY   75  70  83 N9        30.06R
WALTERBORO     MOSUNNY   72  68  88 N5        30.07R
ALLENDALE      FAIR      73  68  83 N6        30.06R

...SOUTHERN MIDLANDS AND PEE DEE...

CITY           SKY/WX    TMP DP  RH WIND       PRES   REMARKS
GEORGETOWN     NOT AVBL
KINGSTREE      NOT AVBL
ORANGEBURG     SUNNY     72  68  87 NE7       30.08R
6HR MIN TEMP:  70; 6HR MAX TEMP:  75; 6HR PCP:  0.01;

BARNWELL       FAIR      73  68  83 NE5       30.09R
AIKEN          FAIR      70  64  83 NE8       30.12R
MANNING        PTSUNNY   70  70 100 N5        30.08R
COLUMBIA       MOSUNNY   73  68  84 N6        30.09R
6HR MIN TEMP:  69; 6HR MAX TEMP:  73; 6HR PCP:  0.11;

SUMTER         PTSUNNY   72  69  92 NE7       30.07R
6HR MIN TEMP:  70; 6HR MAX TEMP:  72;

FLORENCE       PTSUNNY   73  70  90 N8        30.09R FOG
6HR MIN TEMP:  70; 6HR MAX TEMP:  73;

MYRTLE BEACH   CLOUDY    73  68  83 N7        30.07R FOG
N MYRTLE BEACH CLOUDY    74  71  91 NE12      30.05R FOG
6HR MIN TEMP:  71; 6HR MAX TEMP:  74;


$$

GAZ063-065-086>088-099>101-113>116-118-119-134>141-150-051300-
...SOUTHEAST GEORGIA...

CITY           SKY/WX    TMP DP  RH WIND       PRES   REMARKS
SAVANNAH ARPT  PTSUNNY   73  70  90 N9        30.06R
6HR MIN TEMP:  71; 6HR MAX TEMP:  73;

HUNTER AAF     SUNNY     74  74 100 N2        30.02R
6HR MIN TEMP:  73; 6HR MAX TEMP:  75;

FORT STEWART   SUNNY     72  70  92 CALM      30.03R
6HR MIN TEMP:  72; 6HR MAX TEMP:  73;

STATESBORO     MOSUNNY   72  72 100 E3        30.06R
SYLVANIA       NOT AVBL
CLAXTON        NOT AVBL

...CSRA...CENTRAL AND FAR SOUTHEAST GEORGIA...

CITY           SKY/WX    TMP DP  RH WIND       PRES   REMARKS
THOMSON        MOSUNNY   72  72 100 CALM      30.14R
AUGUSTA-BUSH   MOSUNNY   72  67  84 N5        30.07R
6HR MIN TEMP:  70; 6HR MAX TEMP:  75; 6HR PCP: TRACE;

AUGUSTA-DANIEL MOSUNNY   73  66  78 N3        30.09R
SWAINSBORO     FAIR      72  70  94 NE3       30.08R FOG
VIDALIA        SUNNY     72  70  94 NE5       30.07R
EASTMAN        PTSUNNY   72  72 100 CALM      30.08R FOG
HAZLEHURST     FAIR      73  73 100 NE3       30.04R
ALMA           PTSUNNY   72  71  97 NE6       30.03R FOG
6HR MIN TEMP:  70; 6HR MAX TEMP:  72;

WAYCROSS       SUNNY     75  74  98 CALM      30.03R
JESUP          CLOUDY    75  73  94 NE5       30.04R
BAXLEY         FAIR      73  72  94 NE6       30.04R
BRUNSWICK      MOSUNNY   72  72 100 CALM      30.03R
SAINT SIMONS   MOSUNNY   75  74  96 NE7       30.02R
6HR MIN TEMP:  74; 6HR MAX TEMP:  76;


$$

SCZ027-028-034-036>038-045-046-048>050-GAZ119-141-051300-
...LAKE AND SUPPLEMENTAL COASTAL OBSERVATIONS...

STATION/POSITION TIME  TEMP    WIND        PRES    WAVE   SWELL
                       AIR SEA DIR/SP/G            HT/PER HT/PER/DIR
                 (UTC) (F)     (DEG/KT/KT) (MB)    (FT/S) (FT/S/D)
UPR LAKE MARION  NOT AVBL
WINYAH BAY       NOT AVBL
LAKE MURRAY      1100   71     330/  1/  4 1018.3R
ACE BASIN NERRS  NOT AVBL
FORT PULASKI     1100   78 83   30/  9/ 12 1016.9R
SAPELO ISLAND    1100   76      10/  3     1016.0S

$$

ANZ835-935-AMZ111-154-330-350-352-354-370-450-454-472-051300-
...C-MAN AND BUOY OBSERVATIONS...

STATION/POSITION TIME  TEMP    WIND        PRES    WAVE   SWELL
                       AIR SEA DIR/SP/G            HT/PER HT/PER/DIR
                 (UTC) (F)     (DEG/KT/KT) (MB)    (FT/S) (FT/S/D)
BUOY 41004       1150   81 83   30/ 12/ 14 1016.1R   2/ 3
BUOY 41008       1150   80 84  340/  6/  8 1016.7R   1
FOLLY BEACH CMAN 1100   73     360/ 10/ 12 1017.0R
CAPERS NEARSHORE 1108   76      20/ 16/ 19 1017.0R
FRIPP NEARSHORE  1100   79      40/ 19/ 21 1016.0R


STATION/POSITION TIME  TEMP    WIND        PRES    WAVE   SWELL
                       AIR SEA DIR/SP/G            HT/PER HT/PER/DIR
                 (UTC) (F)     (DEG/KT/KT) (MB)    (FT/S) (FT/S/D)
5E ST. MARYS GA  1121      85                N/A     1/ 2
FRYING PAN BUOY  1150   81 82   20/ 14/ 17 1016.9R   2/ 4
BUOY 41025       1150   80 84   40/ 12/ 14 1016.9R   3/ 5   2/ 40/ 7
CAPE LOOKOUT NC  1100   80      20/ 16/ 19 1016.5R
BUOY 41002       1150   82 84   40/ 10/ 12 1015.1R   1/10   2/ 50/10
BUOY 41010       1120   83 85   50/  8/ 10 1015.0R
ST AUGUSTINE FL  1200   82 84   30/  8/  9 1016.7R


$$



USA.gov is the U.S. government's official web portal to all federal, state and local government web resources and services.